Regional Weather Roundup
Issued by NWS

Home | Current Version | Previous Version | Text Only | Print | Product List | Glossary On
Versions: 1 2 3 4 5 6 7 8 9 10 11 12 13 14 15 16 17 18 19 20 21 22 23 24 25 26 27 28 29 30 31 32 33 34 35 36 37 38 39 40 41 42 43 44 45 46 47 48 49 50
446
ASUS44 KFWD 162215
RWRTX
NORTH TEXAS HOURLY WEATHER ROUNDUP
NATIONAL WEATHER SERVICE FORT WORTH TX
400 PM CST SAT DEC 16 2017

NOTE: "FAIR" INDICATES FEW OR NO CLOUDS BELOW 12,000 FEET WITH NO
SIGNIFICANT WEATHER AND/OR OBSTRUCTIONS TO VISIBILITY.

TXZ118-119-162300-
DALLAS/FORT WORTH METROPLEX

CITY           SKY/WX    TMP DP  RH WIND       PRES   REMARKS
DFW AIRPORT    LGT RAIN  53  39  59 S17       30.02S
DALLAS LOVE    LGT RAIN  52  41  66 S15G24    30.05S
FTW MEACHAM    LGT RAIN  51  39  63 S22G30    30.04R
DAL-EXECUTIVE  LGT RAIN  50  39  66 S14G25    30.05R
FTW-ALLIANCE   LGT RAIN  50  40  68 S14       30.03R
FTW-NAS-JRB    LGT RAIN  50  39  66 S16G24    30.05R
FTW-SPINKS     LGT RAIN  48  39  71 S12       30.07S
ARLINGTON      LGT RAIN  48  40  73 S14G21    30.06R
GRAND PRAIRIE  PTSUNNY   48  37  66 S12G24    30.08R
ADDISON        PTSUNNY   54  36  50 S10G17    30.04F
MESQUITE       LGT RAIN  52  36  54 S10       30.06F
LANCASTER      RAIN      50  35  58 S13       30.08R
$$

TXZ091>094-102>105-117-120-121-131>134-162300-
NORTH CENTRAL TEXAS

CITY           SKY/WX    TMP DP  RH WIND       PRES   REMARKS
SHRMAN/DENISON CLOUDY    57  29  34 SE15      30.02F
GAINESVILLE    CLOUDY    56  26  31 S17       30.01S
BOWIE          CLOUDY    55  28  35 SE13G22   29.97F
BRIDGEPORT     CLOUDY    55  29  36 S18G24    30.00S
DECATUR        LGT RAIN  50  38  62 SE10G17   29.99R
DENTON         CLOUDY    53  36  52 S15       30.02S
MCKINNEY       LGT RAIN  54  34  46 S15       30.02F
BONHAM         CLOUDY    56  27  33 S16G23    30.04S
GREENVILLE     CLOUDY    57  30  35 S13G18    30.06F
ROCKWALL       LGT RAIN  53  35  50 S12       30.05F
TERRELL        CLOUDY    54  32  43 S14       30.08S
WAXAHACHIE     RAIN      46  41  82 S10       30.09R
CLEBURNE       LGT RAIN  46  43  87 S9G15     30.04F
GRANBURY       DRIZZLE   48  42  77 S9        30.07R
$$

TXZ083>090-098>101-113>116-127>130-139>142-154-155-162300-
WESTERN NORTH TEXAS

CITY           SKY/WX    TMP DP  RH WIND       PRES   REMARKS
WICHITA FALLS  CLOUDY    57  23  26 S24G30    29.93R
WF-KICKAPOO    MOSUNNY   57  25  28 S16       29.96S
VERNON         CLOUDY    59  17  19 S21       29.89S
ABILENE        LGT RAIN  43  40  89 S15G25    29.95F WCI  36
ABILENE-DYESS  PTSUNNY   45  39  81 S16G22    29.94S WCI  37
GRAHAM           N/A     53  30  41 S15G23    29.97R
BRECKENRIDGE   CLOUDY    52  31  44 S14G23    29.98R
CISCO          CLOUDY    48  34  57 S15       29.98R
EASTLAND       CLOUDY    48  35  61 S13       29.98S
RANGER         CLOUDY    47  37  66 S12       30.00R
MINERAL WELLS  CLOUDY    50  35  56 S21G29    30.01R
STEPHENVILLE   CLOUDY    46  38  74 S12G18    30.06R
COMANCHE       CLOUDY    47  37  67 SE14      30.00F
BROWNWOOD      CLOUDY    48  32  53 S8        30.01S
COLEMAN        DRIZZLE   45  39  79 S7        29.99S
$$

TXZ143>147-156>162-174-175-162300-
CENTRAL TEXAS

CITY           SKY/WX    TMP DP  RH WIND       PRES   REMARKS
WACO           LGT RAIN  46  42  86 S12       30.07F
WACO-TSTC      RAIN      46  43  87 S7        30.09S
WACO-MCGREGOR  LGT RAIN  45  42  89 SE8       30.06F
HILLSBORO      RAIN      46  43  88 S7        30.08R
CORSICANA      RAIN      48  40  73 S10       30.12R
MEXIA          RAIN      46  41  84 S12       30.11R
HEARNE         RAIN      46  46 100 CALM      30.09F
CAMERON        LGT RAIN  46  42  85 SE5       30.07F
TEMPLE         LGT RAIN  45  43  93 SE7       30.07F
KILLEEN        LGT RAIN  45  43  93 SE8       30.03F
KILLEEN-SKYLRK RAIN      45  43  93 S7        30.05F
FORT HOOD      LGT RAIN  45  41  87 SE8       30.00F FOG
GATESVILLE     LGT RAIN  46  43  87 SE6       30.06S
HAMILTON       CLOUDY    46  41  82 S6        30.05R
LAMPASAS       CLOUDY    44  42  90 SE5       30.02R
$$

TXZ095>097-106>112-122>126-135>138-148>153-164>167-162300-
EAST TEXAS

CITY           SKY/WX    TMP DP  RH WIND       PRES   REMARKS
PARIS          CLOUDY    56  28  34 S9        30.08R
SULPHUR SPRNGS CLOUDY    56  28  33 S8        30.09S
MOUNT PLEASANT CLOUDY    56  33  42 SE8       30.09F
GILMER         CLOUDY    53  33  45 S7        30.09F
MINEOLA        CLOUDY    54  32  43 S8        30.08F
TYLER          CLOUDY    51  34  52 S7        30.10S
LONGVIEW       CLOUDY    53  37  54 SE8       30.10R
MARSHALL       CLOUDY    53  34  48 S5        30.13S
ATHENS         LGT RAIN  46  32  57 S3        30.09R
PALESTINE      LGT RAIN  50  40  69 CALM      30.11S
HENDERSON      CLOUDY    51  35  52 SE3       30.12R
CENTER         LGT RAIN  51  32  49 CALM      30.13S
NACOGDOCHES    LGT RAIN  51  38  60 E5        30.10F
LUFKIN         CLOUDY    50  39  66 E6        30.09F
$$

SUPPLEMENTAL OBSERVATIONS (NWS FORT WORTH AREA)

CITY           SKY/WX    TMP DP  RH WIND       PRES   REMARKS
DENISON DAM      N/A     57  28  33 S13         N/A
CADDO GRASSLND   N/A     57  28  33 S13         N/A
PAT MAYSE LAKE   N/A     57  23  26 SE16        N/A
GREENVILLE       N/A     55  28  35 S10         N/A
CEDAR HILL       N/A     46  39  76 S8G16       N/A
LBJ GRASSLAND    N/A     50  34  53 SE10G20     N/A
POSSUM KINGDOM   N/A     50  34  53 S14G23      N/A
GRANBURY         N/A     48  41  76 S9G24       N/A
COMANCHE         N/A     46  34  61 S14         N/A
MCGREGOR         N/A     45  41  87 SE10        N/A  WCI  39
TEMPLE           N/A     45  39  81 S3          N/A
LAKE LIMESTONE   N/A     46  43  87 E3          N/A
ATHENS           N/A     52  39  62 SE7         N/A
$$

SUPPLEMENTAL OBSERVATIONS (NWS NORMAN AREA)

CITY           SKY/WX    TMP DP  RH WIND       PRES   REMARKS
GOODLETT         N/A     56  22  26 S20       29.85S
ODELL            N/A     57  25  29 SE18      29.89S
CROWELL          N/A     53  28  37 S23       29.89S
KNOX CITY        N/A     50  32  49 S22       29.91S
SEYMOUR          N/A     53  29  39 S16       29.92R
MILLERS CREEK    N/A     52  32  46 S17G26      N/A
$$

SUPPLEMENTAL OBSERVATIONS (NWS SAN ANGELO AREA)

CITY           SKY/WX    TMP DP  RH WIND       PRES   REMARKS
WEINERT          N/A     49  33  54 S24       29.93R
HASKELL          N/A     47  35  61 S16G22    29.94R
THROCKMORTON     N/A     53  29  39 S18       29.95S
STAMFORD         N/A     47  37  68 S18       29.94S WCI  40
CLYDE            N/A     42  38  85 S13       29.96S WCI  36
HAMBY            N/A     45  37  76 S16G24      N/A  WCI  37
IVIE RESERVOIR   N/A     46  37  71 S8          N/A
COLORADO BEND    N/A     45  37  76 SE10        N/A  WCI  39
$$

SUPPLEMENTAL OBSERVATIONS (NWS SHREVEPORT AREA)

CITY           SKY/WX    TMP DP  RH WIND       PRES   REMARKS
TEXARKANA        N/A     55  32  41 S5          N/A
LINDEN           N/A     55  34  44 SE1G9       N/A
CADDO LAKE       N/A     54  34  47 S2          N/A
LUFKIN           N/A     52  39  62 MISG        N/A
N SABINE NF      N/A     52  37  58 MISG        N/A
$$

SUPPLEMENTAL OBSERVATIONS ARE A COLLECTION OF AUTOMATED INSTRUMENTS
THAT ARE MAINTAINED BY A VARIETY OF FEDERAL AND STATE AGENCIES.
CERTAIN ELEMENTS...SUCH AS HUMIDITY VALUES AND SUSTAINED WIND
SPEEDS...MAY BE APPROXIMATED.





USA.gov is the U.S. government's official web portal to all federal, state and local government web resources and services.